BREEZE-KM DEB, 41721

Orbit data source: Space-Track

BREEZE-KM DEB, 41721 is space debris in LEO originally from a launch on Tue, 31 Mar 2015 UTC launched from the Plesetsk Missile And Space Complex (PKMTR). Debris objects in space refer to the collection of defunct objects orbiting the Earth. Examples of debris include non-operational satellites, rocket bodies, and fragments generated from explosions, collisions, or faulty payload assembly.

Loading next visibility...
BREEZE-KM DEB details
Identifier
41721, 2015-020J
Orbit
LEO
Last TLE update14 hours ago
Origin
Flag of CISVVKO VKS (CIS)
ManufacturerKhrunichev
MissionSpacecraft
Bus & MotorUnknown
MassUnknown
Launch date (UTC)
2015-03-31 (10 years ago)
Launch vehicleUnknown
Launch site
Plesetsk Missile And Space Complex (PKMTR)
Object type
Payload
Rocket body
Debris
Shape & HBRUnknown
Radar Cross SectionSmall (<0.1 m²)

Expand to show TLE details & history

TLE from 14 hours ago
0 BREEZE-KM DEB
1 41721U 15020J   24360.95163743  .00000050  00000-0  17196-3 0  9998
2 41721  82.4908 231.1876 0244617 303.9736  53.8331 12.74702650443616
Epoch: 2024-12-25T22:50Z
Definitive object data (Epoch: 2024-12-25T22:50:21.473Z)
Latitude-0.00004°
Longitude153.66011°
Altitude1,256.91 km
Speed7.277 km/s
True Right ascension15h 24m 45s
True Declination0° 00' 00"
Sunlit
Object was in daylight at TLE epoch
Visualization TLE readout
Latitude65.24938°
Longitude-43.25115°
Altitude1,561.066 km
Speed7.006 km/s
Apparent Right ascension00h 54m 42s
Apparent Declination21° 35' 24"
Sunlit
Object is in daylight
Visualization observer readout
Local Sidereal Time11:59:19
Azimuth345.521° N
Elevation-27.152°
Doppler factor1
Orbital elements
Apogee altitude1,549.438 km
Perigee altitude1,170.855 km
Semi-major axis7,738.284 km
Eccentricity0.0244617
Inclination82.4908°
RAAN231.1876°
Arg. of periapsis303.9736°
True anomaly56.13698°
Mean anomaly53.8331°
Eccentric anomaly54.98092°
Mean motion3.18843 °/min
BSTAR0.00017196
Orbital period112.91 mins
Loading maneuver chart data...
Loading historical data...
Loading historical data...
Loading historical data...
Loading historical data...
Loading historical data...
Loading historical data...
Loading historical data...

BREEZE-KM DEB Visibility forecast

Observer location: undefined°, undefined

Span
Click to sort rows by Start time (UTC) header in descending order
Start Az.
Max El. time (UTC)
Max El. Az.
Max El.
End time (UTC)
End Az.
15 mins2024-12-26 15:52:47.258Z169.572° S2024-12-26 15:59:47.258Z97.644° ESE41.823°2024-12-26 16:07:47.258Z14.343° NNE
11 mins2024-12-26 17:49:47.258Z248.456° W2024-12-26 17:54:47.258Z295.871° NW24.06°2024-12-26 18:00:47.258Z344.379° N
13 mins2024-12-27 01:49:47.258Z18.553° NNE2024-12-27 01:55:47.258Z65.369° ENE23.715°2024-12-27 02:02:47.258Z118.905° SE
16 mins2024-12-27 03:42:47.258Z347.391° N2024-12-27 03:50:47.258Z259.688° W43.612°2024-12-27 03:58:47.258Z185.359° SSW
5 mins2024-12-27 05:40:47.258Z300.27° NW2024-12-27 05:42:47.258Z286.348° WNW13.039°2024-12-27 05:45:47.258Z265.696° W
|